Time,TemperatureF,DewpointF,PressureIn,WindDirection,WindDirectionDegrees,WindSpeedMPH,WindSpeedGustMPH,Humidity,HourlyPrecipIn,Conditions,Clouds,dailyrainin,SoftwareType,DateUTC
2013-12-19 00:01:00,6.9,2.6,29.86,WNW,284,3.5,3.5,82,0.00,CLR,,0.00,WeatherDisplay:10.37,2013-12-19 06:01:00,
2013-12-19 00:06:00,6.9,2.6,29.87,WNW,288,5.8,5.8,82,0.00,CLR,,0.00,WeatherDisplay:10.37,2013-12-19 06:06:00,
2013-12-19 00:11:00,6.9,2.6,29.88,WNW,288,4.6,4.6,82,0.00,CLR,,0.00,WeatherDisplay:10.37,2013-12-19 06:11:00,
2013-12-19 00:16:00,6.7,2.4,29.88,WNW,288,4.6,4.6,82,0.00,CLR,,0.00,WeatherDisplay:10.37,2013-12-19 06:16:00,
2013-12-19 00:21:00,6.7,2.1,29.88,WNW,288,4.6,4.6,81,0.00,CLR,,0.00,WeatherDisplay:10.37,2013-12-19 06:21:00,
2013-12-19 00:26:00,6.5,1.9,29.88,WNW,300,6.9,6.9,81,0.00,CLR,,0.00,WeatherDisplay:10.37,2013-12-19 06:26:00,
2013-12-19 00:31:00,6.5,1.9,29.88,WNW,302,5.0,5.0,81,0.00,CLR,,0.00,WeatherDisplay:10.37,2013-12-19 06:31:00,
2013-12-19 00:36:00,6.5,2.2,29.88,NW,310,5.8,5.8,82,0.00,CLR,,0.00,WeatherDisplay:10.37,2013-12-19 06:36:00,
2013-12-19 00:41:00,6.3,2.0,29.88,NW,317,3.5,3.5,82,0.00,CLR,,0.00,WeatherDisplay:10.37,2013-12-19 06:41:00,
2013-12-19 00:46:00,6.5,2.2,29.88,NW,320,4.0,4.0,82,0.00,CLR,,0.00,WeatherDisplay:10.37,2013-12-19 06:46:00,
2013-12-19 00:51:00,6.5,2.4,29.89,NW,314,5.0,5.0,83,0.00,CLR,,0.00,WeatherDisplay:10.37,2013-12-19 06:51:00,
2013-12-19 00:56:00,6.5,2.4,29.89,NW,318,7.0,7.0,83,0.00,CLR,,0.00,WeatherDisplay:10.37,2013-12-19 06:56:00,
2013-12-19 01:01:00,6.5,2.7,29.90,NW,324,8.1,8.1,84,0.00,CLR,,0.00,WeatherDisplay:10.37,2013-12-19 07:01:00,
2013-12-19 01:06:00,6.5,2.7,29.90,NNW,327,7.0,7.0,84,0.00,CLR,,0.00,WeatherDisplay:10.37,2013-12-19 07:06:00,
2013-12-19 01:11:00,6.5,2.7,29.90,NW,321,9.2,9.2,84,0.00,CLR,,0.00,WeatherDisplay:10.37,2013-12-19 07:11:00,
2013-12-19 01:16:00,6.5,2.7,29.89,NNW,336,10.0,10.0,84,0.00,CLR,,0.00,WeatherDisplay:10.37,2013-12-19 07:16:00,
2013-12-19 01:21:00,6.7,2.9,29.89,NNW,331,12.0,12.0,84,0.00,CLR,,0.00,WeatherDisplay:10.37,2013-12-19 07:21:00,
2013-12-19 01:26:00,7.0,3.4,29.90,NW,319,10.4,10.4,85,0.00,CLR,,0.00,WeatherDisplay:10.37,2013-12-19 07:26:00,
2013-12-19 01:31:00,7.4,4.1,29.90,NW,323,10.4,10.4,86,0.00,CLR,,0.00,WeatherDisplay:10.37,2013-12-19 07:31:00,
2013-12-19 01:36:00,7.9,4.8,29.90,NNW,334,11.5,11.5,87,0.00,CLR,,0.00,WeatherDisplay:10.37,2013-12-19 07:36:00,
2013-12-19 01:41:00,8.3,5.2,29.90,NNW,343,12.7,12.7,87,0.00,CLR,,0.00,WeatherDisplay:10.37,2013-12-19 07:41:00,
2013-12-19 01:46:00,9.0,6.2,29.91,NNW,340,9.2,9.2,88,0.00,CLR,,0.00,WeatherDisplay:10.37,2013-12-19 07:46:00,
2013-12-19 01:51:00,9.5,6.7,29.91,NW,316,9.2,9.2,88,0.00,CLR,,0.00,WeatherDisplay:10.37,2013-12-19 07:51:00,
2013-12-19 01:56:00,10.0,7.2,29.92,WNW,300,10.4,10.4,88,0.00,CLR,,0.00,WeatherDisplay:10.37,2013-12-19 07:56:00,
2013-12-19 02:01:00,10.4,7.6,29.92,NW,321,11.5,11.5,88,0.00,CLR,,0.00,WeatherDisplay:10.37,2013-12-19 08:01:00,
2013-12-19 02:06:00,10.7,7.8,29.92,NW,316,9.2,9.2,88,0.00,CLR,,0.00,WeatherDisplay:10.37,2013-12-19 08:06:00,
2013-12-19 02:11:00,11.1,8.2,29.93,NW,307,8.1,8.1,88,0.00,CLR,,0.00,WeatherDisplay:10.37,2013-12-19 08:11:00,
2013-12-19 02:16:00,11.4,8.5,29.93,NNW,327,13.0,13.0,88,0.00,CLR,,0.00,WeatherDisplay:10.37,2013-12-19 08:16:00,
2013-12-19 02:21:00,11.7,8.8,29.93,NW,315,11.0,11.0,88,0.00,CLR,,0.00,WeatherDisplay:10.37,2013-12-19 08:21:00,
2013-12-19 02:26:00,12.3,9.4,29.94,NW,319,12.7,12.7,88,0.00,CLR,,0.00,WeatherDisplay:10.37,2013-12-19 08:26:00,
2013-12-19 02:31:00,12.8,10.2,29.94,NW,325,15.0,15.0,89,0.00,CLR,,0.00,WeatherDisplay:10.37,2013-12-19 08:31:00,
2013-12-19 02:36:00,13.1,10.5,29.94,NNW,337,13.8,13.8,89,0.00,CLR,,0.00,WeatherDisplay:10.37,2013-12-19 08:36:00,
2013-12-19 02:41:00,13.5,10.9,29.95,NW,317,12.7,12.7,89,0.00,CLR,,0.00,WeatherDisplay:10.37,2013-12-19 08:41:00,
2013-12-19 02:46:00,13.8,11.2,29.95,NW,321,16.1,16.1,89,0.00,CLR,,0.00,WeatherDisplay:10.37,2013-12-19 08:46:00,
2013-12-19 02:51:00,14.0,11.1,29.95,NNW,341,15.0,15.0,88,0.00,CLR,,0.00,WeatherDisplay:10.37,2013-12-19 08:51:00,
2013-12-19 02:56:00,14.1,11.2,29.95,NNW,333,10.0,10.0,88,0.00,CLR,,0.00,WeatherDisplay:10.37,2013-12-19 08:56:00,
2013-12-19 03:01:00,14.1,11.2,29.96,North,349,10.0,10.0,88,0.00,CLR,,0.00,WeatherDisplay:10.37,2013-12-19 09:01:00,
2013-12-19 03:06:00,14.3,11.4,29.96,NNW,345,11.5,11.5,88,0.00,CLR,,0.00,WeatherDisplay:10.37,2013-12-19 09:06:00,
2013-12-19 03:11:00,14.3,11.4,29.96,North,350,9.0,9.0,88,0.00,CLR,,0.00,WeatherDisplay:10.37,2013-12-19 09:11:00,
2013-12-19 03:16:00,14.3,11.4,29.97,NW,318,11.5,11.5,88,0.00,CLR,,0.00,WeatherDisplay:10.37,2013-12-19 09:16:00,
2013-12-19 03:21:00,14.3,11.4,29.97,North,354,15.0,15.0,88,0.00,CLR,,0.00,WeatherDisplay:10.37,2013-12-19 09:21:00,
2013-12-19 03:26:00,14.3,11.4,29.96,North,4,16.1,16.1,88,0.00,CLR,,0.00,WeatherDisplay:10.37,2013-12-19 09:26:00,
2013-12-19 03:31:00,14.3,11.4,29.97,NW,321,11.5,11.5,88,0.00,CLR,,0.00,WeatherDisplay:10.37,2013-12-19 09:31:00,
2013-12-19 03:36:00,14.3,11.4,29.97,NNW,330,13.8,13.8,88,0.00,CLR,,0.00,WeatherDisplay:10.37,2013-12-19 09:36:00,
2013-12-19 03:41:00,14.1,11.2,29.97,NW,319,18.4,18.4,88,0.00,CLR,,0.00,WeatherDisplay:10.37,2013-12-19 09:41:00,
2013-12-19 03:46:00,14.1,11.2,29.97,WNW,301,11.5,11.5,88,0.00,CLR,,0.00,WeatherDisplay:10.37,2013-12-19 09:46:00,
2013-12-19 03:51:00,14.1,11.2,29.96,NNW,339,15.0,15.0,88,0.00,CLR,,0.00,WeatherDisplay:10.37,2013-12-19 09:51:00,
2013-12-19 03:56:00,14.1,11.2,29.96,NNW,340,15.0,15.0,88,0.00,CLR,,0.00,WeatherDisplay:10.37,2013-12-19 09:56:00,
2013-12-19 04:01:00,14.3,11.4,29.96,NNW,346,11.5,11.5,88,0.00,CLR,,0.00,WeatherDisplay:10.37,2013-12-19 10:01:00,
2013-12-19 04:06:00,14.3,11.4,29.97,North,354,9.2,9.2,88,0.00,CLR,,0.00,WeatherDisplay:10.37,2013-12-19 10:06:00,
2013-12-19 04:11:00,14.4,11.5,29.97,NNW,329,7.0,7.0,88,0.00,CLR,,0.00,WeatherDisplay:10.37,2013-12-19 10:11:00,
2013-12-19 04:16:00,14.4,11.5,29.98,NNW,331,9.0,9.0,88,0.00,CLR,,0.00,WeatherDisplay:10.37,2013-12-19 10:16:00,
2013-12-19 04:21:00,14.6,11.7,29.98,North,359,10.4,10.4,88,0.00,CLR,,0.00,WeatherDisplay:10.37,2013-12-19 10:21:00,
2013-12-19 04:26:00,14.6,11.7,29.98,NNW,340,16.1,16.1,88,0.00,CLR,,0.00,WeatherDisplay:10.37,2013-12-19 10:26:00,
2013-12-19 04:31:00,14.6,11.7,29.98,North,354,18.4,18.4,88,0.00,CLR,,0.00,WeatherDisplay:10.37,2013-12-19 10:31:00,
2013-12-19 04:36:00,14.6,11.7,29.98,North,351,13.8,13.8,88,0.00,CLR,,0.00,WeatherDisplay:10.37,2013-12-19 10:36:00,
2013-12-19 04:41:00,14.6,11.7,29.98,North,358,15.0,15.0,88,0.00,CLR,,0.00,WeatherDisplay:10.37,2013-12-19 10:41:00,
2013-12-19 04:46:00,14.6,11.7,29.99,North,5,13.8,13.8,88,0.00,CLR,,0.00,WeatherDisplay:10.37,2013-12-19 10:46:00,
2013-12-19 04:51:00,14.6,11.7,29.99,North,354,16.1,16.1,88,0.00,CLR,,0.00,WeatherDisplay:10.37,2013-12-19 10:51:00,
2013-12-19 04:56:00,14.6,11.7,29.99,NNW,344,17.3,17.3,88,0.00,CLR,,0.00,WeatherDisplay:10.37,2013-12-19 10:56:00,
2013-12-19 05:01:00,14.6,11.7,29.99,North,352,19.6,19.6,88,0.00,CLR,,0.00,WeatherDisplay:10.37,2013-12-19 11:01:00,
2013-12-19 05:06:00,14.4,11.2,29.99,NNE,18,15.0,15.0,87,0.00,CLR,,0.00,WeatherDisplay:10.37,2013-12-19 11:06:00,
2013-12-19 05:11:00,14.4,11.2,29.99,NNW,339,14.0,14.0,87,0.00,CLR,,0.00,WeatherDisplay:10.37,2013-12-19 11:11:00,
2013-12-19 05:16:00,14.4,11.2,30.00,NNW,343,13.0,13.0,87,0.00,CLR,,0.00,WeatherDisplay:10.37,2013-12-19 11:16:00,
2013-12-19 05:21:00,14.3,11.1,30.00,North,352,11.5,11.5,87,0.00,CLR,,0.00,WeatherDisplay:10.37,2013-12-19 11:21:00,
2013-12-19 05:26:00,14.3,11.1,30.01,NNW,346,13.8,13.8,87,0.00,CLR,,0.00,WeatherDisplay:10.37,2013-12-19 11:26:00,
2013-12-19 05:31:00,14.3,11.1,30.01,NNW,348,12.7,12.7,87,0.00,CLR,,0.00,WeatherDisplay:10.37,2013-12-19 11:31:00,
2013-12-19 05:36:00,14.3,11.7,30.02,North,354,14.0,14.0,89,0.00,CLR,,0.00,WeatherDisplay:10.37,2013-12-19 11:36:00,
2013-12-19 05:41:00,14.4,11.5,30.02,NNW,342,17.3,17.3,88,0.00,CLR,,0.00,WeatherDisplay:10.37,2013-12-19 11:41:00,
2013-12-19 05:46:00,14.4,11.5,30.03,North,5,9.2,9.2,88,0.00,CLR,,0.00,WeatherDisplay:10.37,2013-12-19 11:46:00,
2013-12-19 05:51:00,14.4,11.5,30.03,NNE,15,11.5,11.5,88,0.00,CLR,,0.00,WeatherDisplay:10.37,2013-12-19 11:51:00,
2013-12-19 05:56:00,14.4,11.5,30.04,North,352,15.0,15.0,88,0.00,CLR,,0.00,WeatherDisplay:10.37,2013-12-19 11:56:00,
2013-12-19 06:01:00,14.4,11.5,30.04,NW,325,17.3,17.3,88,0.00,CLR,,0.00,WeatherDisplay:10.37,2013-12-19 12:01:00,
2013-12-19 06:06:00,14.4,11.5,30.05,NW,320,19.6,19.6,88,0.00,CLR,,0.00,WeatherDisplay:10.37,2013-12-19 12:06:00,
2013-12-19 06:11:00,14.4,11.2,30.05,North,360,15.0,15.0,87,0.00,CLR,,0.00,WeatherDisplay:10.37,2013-12-19 12:11:00,
2013-12-19 06:16:00,14.3,11.1,30.05,North,358,17.0,17.0,87,0.00,CLR,,0.00,WeatherDisplay:10.37,2013-12-19 12:16:00,
2013-12-19 06:21:00,14.3,11.1,30.06,North,352,17.3,17.3,87,0.00,CLR,,0.00,WeatherDisplay:10.37,2013-12-19 12:21:00,
2013-12-19 06:26:00,14.3,11.1,30.06,NW,320,17.0,17.0,87,0.00,CLR,,0.00,WeatherDisplay:10.37,2013-12-19 12:26:00,
2013-12-19 06:31:00,14.1,10.9,30.06,NNW,346,13.8,13.8,87,0.00,CLR,,0.00,WeatherDisplay:10.37,2013-12-19 12:31:00,
2013-12-19 06:36:00,14.1,10.9,30.06,North,7,15.0,15.0,87,0.00,CLR,,0.00,WeatherDisplay:10.37,2013-12-19 12:36:00,
2013-12-19 06:41:00,14.1,10.9,30.06,NNW,346,16.1,16.1,87,0.00,CLR,,0.00,WeatherDisplay:10.37,2013-12-19 12:41:00,
2013-12-19 06:46:00,14.0,10.8,30.07,North,352,16.1,16.1,87,0.00,CLR,,0.00,WeatherDisplay:10.37,2013-12-19 12:46:00,
2013-12-19 06:51:00,14.0,10.8,30.06,North,354,11.0,11.0,87,0.00,CLR,,0.00,WeatherDisplay:10.37,2013-12-19 12:51:00,
2013-12-19 06:56:00,14.0,10.8,30.06,North,354,13.8,13.8,87,0.00,CLR,,0.00,WeatherDisplay:10.37,2013-12-19 12:56:00,
2013-12-19 07:01:00,13.8,10.4,30.07,North,354,15.0,15.0,86,0.00,CLR,,0.00,WeatherDisplay:10.37,2013-12-19 13:01:00,
2013-12-19 07:06:00,13.8,10.4,30.07,North,1,16.1,16.1,86,0.00,CLR,,0.00,WeatherDisplay:10.37,2013-12-19 13:06:00,
2013-12-19 07:11:00,13.6,10.2,30.06,NNE,22,19.6,19.6,86,0.00,CLR,,0.00,WeatherDisplay:10.37,2013-12-19 13:11:00,
2013-12-19 07:16:00,13.5,10.1,30.07,NNW,340,17.3,17.3,86,0.00,CLR,,0.00,WeatherDisplay:10.37,2013-12-19 13:16:00,
2013-12-19 07:21:00,13.5,10.1,30.07,NNE,15,17.3,17.3,86,0.00,CLR,,0.00,WeatherDisplay:10.37,2013-12-19 13:21:00,
2013-12-19 07:26:00,13.3,9.6,30.07,NW,326,16.1,16.1,85,0.00,CLR,,0.00,WeatherDisplay:10.37,2013-12-19 13:26:00,
2013-12-19 07:31:00,13.1,9.4,30.07,North,2,15.0,15.0,85,0.00,CLR,,0.00,WeatherDisplay:10.37,2013-12-19 13:31:00,
2013-12-19 07:36:00,12.9,9.2,30.08,NNE,19,10.4,10.4,85,0.00,CLR,,0.00,WeatherDisplay:10.37,2013-12-19 13:36:00,
2013-12-19 07:41:00,12.9,9.2,30.08,NNE,12,18.4,18.4,85,0.00,CLR,,0.00,WeatherDisplay:10.37,2013-12-19 13:41:00,
2013-12-19 07:46:00,12.8,9.1,30.08,NNE,13,17.3,17.3,85,0.00,CLR,,0.00,WeatherDisplay:10.37,2013-12-19 13:46:00,
2013-12-19 07:51:00,12.8,9.1,30.08,North,8,17.3,17.3,85,0.00,CLR,,0.00,WeatherDisplay:10.37,2013-12-19 13:51:00,
2013-12-19 07:56:00,12.6,8.9,30.09,North,7,9.2,9.2,85,0.00,CLR,,0.00,WeatherDisplay:10.37,2013-12-19 13:56:00,
2013-12-19 08:01:00,12.6,8.9,30.09,North,358,9.0,9.0,85,0.00,CLR,,0.00,WeatherDisplay:10.37,2013-12-19 14:01:00,
2013-12-19 08:06:00,12.6,8.9,30.10,NNE,15,13.8,13.8,85,0.00,CLR,,0.00,WeatherDisplay:10.37,2013-12-19 14:06:00,
2013-12-19 08:11:00,12.6,8.9,30.10,NNE,22,9.2,9.2,85,0.00,CLR,,0.00,WeatherDisplay:10.37,2013-12-19 14:11:00,
2013-12-19 08:16:00,12.6,8.9,30.10,NNE,30,10.4,10.4,85,0.00,CLR,,0.00,WeatherDisplay:10.37,2013-12-19 14:16:00,
2013-12-19 08:21:00,12.6,8.9,30.11,North,11,12.0,12.0,85,0.00,CLR,,0.00,WeatherDisplay:10.37,2013-12-19 14:21:00,
2013-12-19 08:26:00,12.6,8.9,30.12,NNE,25,7.0,7.0,85,0.00,CLR,,0.00,WeatherDisplay:10.37,2013-12-19 14:26:00,
2013-12-19 08:31:00,12.6,8.9,30.11,North,2,6.9,6.9,85,0.00,CLR,,0.00,WeatherDisplay:10.37,2013-12-19 14:31:00,
2013-12-19 08:36:00,12.8,10.2,30.12,North,4,9.2,9.2,89,0.00,CLR,,0.00,WeatherDisplay:10.37,2013-12-19 14:36:00,
2013-12-19 08:41:00,12.8,9.1,30.12,NNE,23,4.6,4.6,85,0.00,CLR,,0.00,WeatherDisplay:10.37,2013-12-19 14:41:00,
2013-12-19 08:46:00,12.8,9.1,30.12,NNE,19,10.0,10.0,85,0.00,CLR,,0.00,WeatherDisplay:10.37,2013-12-19 14:46:00,
2013-12-19 08:51:00,12.8,9.1,30.12,NE,41,9.2,9.2,85,0.00,CLR,,0.00,WeatherDisplay:10.37,2013-12-19 14:51:00,
2013-12-19 08:56:00,12.9,9.2,30.13,NE,44,6.9,6.9,85,0.00,CLR,,0.00,WeatherDisplay:10.37,2013-12-19 14:56:00,
2013-12-19 09:01:00,12.9,9.2,30.13,North,7,12.0,12.0,85,0.00,CLR,,0.00,WeatherDisplay:10.37,2013-12-19 15:01:00,
2013-12-19 09:06:00,12.9,9.2,30.13,North,2,11.5,11.5,85,0.00,CLR,,0.00,WeatherDisplay:10.37,2013-12-19 15:06:00,
2013-12-19 09:11:00,13.1,9.4,30.13,NE,42,12.7,12.7,85,0.00,CLR,,0.00,WeatherDisplay:10.37,2013-12-19 15:11:00,
2013-12-19 09:16:00,13.1,9.4,30.14,NE,37,10.4,10.4,85,0.00,CLR,,0.00,WeatherDisplay:10.37,2013-12-19 15:16:00,
2013-12-19 09:21:00,13.1,9.2,30.14,NNE,30,7.0,7.0,84,0.00,CLR,,0.00,WeatherDisplay:10.37,2013-12-19 15:21:00,
2013-12-19 09:26:00,13.1,9.2,30.14,NNE,22,11.5,11.5,84,0.00,CLR,,0.00,WeatherDisplay:10.37,2013-12-19 15:26:00,
2013-12-19 09:31:00,13.3,9.4,30.14,NNE,25,13.8,13.8,84,0.00,CLR,,0.00,WeatherDisplay:10.37,2013-12-19 15:31:00,
2013-12-19 09:36:00,13.3,9.4,30.15,North,358,15.0,15.0,84,0.00,CLR,,0.00,WeatherDisplay:10.37,2013-12-19 15:36:00,
2013-12-19 09:41:00,13.3,9.4,30.15,North,359,8.0,8.0,84,0.00,CLR,,0.00,WeatherDisplay:10.37,2013-12-19 15:41:00,
2013-12-19 09:46:00,13.3,9.4,30.15,North,7,10.4,10.4,84,0.00,CLR,,0.00,WeatherDisplay:10.37,2013-12-19 15:46:00,
2013-12-19 09:51:00,13.3,9.4,30.15,North,1,10.4,10.4,84,0.00,CLR,,0.00,WeatherDisplay:10.37,2013-12-19 15:51:00,
2013-12-19 09:56:00,13.3,9.1,30.16,NE,44,9.2,9.2,83,0.00,CLR,,0.00,WeatherDisplay:10.37,2013-12-19 15:56:00,
2013-12-19 10:01:00,13.3,9.4,30.16,NE,35,12.0,12.0,84,0.00,CLR,,0.00,WeatherDisplay:10.37,2013-12-19 16:01:00,
2013-12-19 10:06:00,13.5,9.6,30.16,NNE,18,8.1,8.1,84,0.00,CLR,,0.00,WeatherDisplay:10.37,2013-12-19 16:06:00,
2013-12-19 10:11:00,13.6,9.7,30.16,NNE,27,4.6,4.6,84,0.00,CLR,,0.00,WeatherDisplay:10.37,2013-12-19 16:11:00,
2013-12-19 10:16:00,13.8,9.9,30.16,NNE,21,9.0,9.0,84,0.00,CLR,,0.00,WeatherDisplay:10.37,2013-12-19 16:16:00,
2013-12-19 10:21:00,14.0,10.1,30.17,NNE,17,10.4,10.4,84,0.00,CLR,,0.00,WeatherDisplay:10.37,2013-12-19 16:21:00,
2013-12-19 10:26:00,14.1,10.2,30.17,NNE,21,12.0,12.0,84,0.00,CLR,,0.00,WeatherDisplay:10.37,2013-12-19 16:26:00,
2013-12-19 10:31:00,14.3,10.4,30.17,NE,42,10.0,10.0,84,0.00,CLR,,0.00,WeatherDisplay:10.37,2013-12-19 16:31:00,
2013-12-19 10:36:00,14.4,10.2,30.17,NNE,29,14.0,14.0,83,0.00,CLR,,0.00,WeatherDisplay:10.37,2013-12-19 16:36:00,
2013-12-19 10:41:00,14.6,10.4,30.17,NE,40,8.1,8.1,83,0.00,CLR,,0.00,WeatherDisplay:10.37,2013-12-19 16:41:00,
2013-12-19 10:46:00,14.8,10.6,30.17,NNE,32,13.8,13.8,83,0.00,CLR,,0.00,WeatherDisplay:10.37,2013-12-19 16:46:00,
2013-12-19 10:51:00,14.9,10.4,30.17,NE,37,14.0,14.0,82,0.00,CLR,,0.00,WeatherDisplay:10.37,2013-12-19 16:51:00,
2013-12-19 10:56:00,15.1,10.6,30.17,NNE,31,8.1,8.1,82,0.00,CLR,,0.00,WeatherDisplay:10.37,2013-12-19 16:56:00,
2013-12-19 11:01:00,15.2,10.7,30.17,NNE,15,16.1,16.1,82,0.00,CLR,,0.00,WeatherDisplay:10.37,2013-12-19 17:01:00,
2013-12-19 11:06:00,15.4,10.9,30.17,NNE,17,13.8,13.8,82,0.00,CLR,,0.00,WeatherDisplay:10.37,2013-12-19 17:06:00,
2013-12-19 11:11:00,15.4,10.6,30.17,NNE,28,19.6,19.6,81,0.00,CLR,,0.00,WeatherDisplay:10.37,2013-12-19 17:11:00,
2013-12-19 11:16:00,15.2,10.1,30.17,NNE,27,16.1,16.1,80,0.00,CLR,,0.00,WeatherDisplay:10.37,2013-12-19 17:16:00,
2013-12-19 11:21:00,15.2,10.1,30.17,North,7,15.0,15.0,80,0.00,CLR,,0.00,WeatherDisplay:10.37,2013-12-19 17:21:00,
2013-12-19 11:26:00,15.2,10.4,30.17,NNE,24,15.0,15.0,81,0.00,CLR,,0.00,WeatherDisplay:10.37,2013-12-19 17:26:00,
2013-12-19 11:31:00,15.2,10.4,30.17,NNE,19,11.0,11.0,81,0.00,CLR,,0.00,WeatherDisplay:10.37,2013-12-19 17:31:00,
2013-12-19 11:36:00,15.2,10.4,30.17,NE,41,12.0,12.0,81,0.00,CLR,,0.00,WeatherDisplay:10.37,2013-12-19 17:36:00,
2013-12-19 11:41:00,15.2,10.4,30.17,NNE,17,12.7,12.7,81,0.00,CLR,,0.00,WeatherDisplay:10.37,2013-12-19 17:41:00,
2013-12-19 11:46:00,15.2,10.4,30.17,NNE,15,13.8,13.8,81,0.00,CLR,,0.00,WeatherDisplay:10.37,2013-12-19 17:46:00,
2013-12-19 11:51:00,15.4,10.6,30.17,NE,45,11.5,11.5,81,0.00,CLR,,0.00,WeatherDisplay:10.37,2013-12-19 17:51:00,
2013-12-19 11:56:00,15.4,10.6,30.17,NNE,23,13.8,13.8,81,0.00,CLR,,0.00,WeatherDisplay:10.37,2013-12-19 17:56:00,
2013-12-19 12:01:00,15.6,10.8,30.17,NNE,15,11.5,11.5,81,0.00,CLR,,0.00,WeatherDisplay:10.37,2013-12-19 18:01:00,
2013-12-19 12:06:00,15.6,10.8,30.17,NE,47,13.8,13.8,81,0.00,CLR,,0.00,WeatherDisplay:10.37,2013-12-19 18:06:00,
2013-12-19 12:11:00,15.7,10.9,30.17,NNE,15,10.0,10.0,81,0.00,CLR,,0.00,WeatherDisplay:10.37,2013-12-19 18:11:00,
2013-12-19 12:12:00,15.7,10.9,30.17,NNE,13,14.0,14.0,81,0.00,CLR,,0.00,WeatherDisplay:10.37,2013-12-19 18:12:00,
2013-12-19 12:17:00,15.7,10.9,30.17,NE,46,16.0,16.0,81,0.00,CLR,,0.00,WeatherDisplay:10.37,2013-12-19 18:17:00,
2013-12-19 12:22:00,15.9,11.1,30.17,NE,40,15.0,15.0,81,0.00,CLR,,0.00,WeatherDisplay:10.37,2013-12-19 18:22:00,
2013-12-19 12:27:00,15.9,11.1,30.17,NNE,29,11.5,11.5,81,0.00,CLR,,0.00,WeatherDisplay:10.37,2013-12-19 18:27:00,
2013-12-19 12:32:00,16.1,11.3,30.16,North,11,8.0,8.0,81,0.00,CLR,,0.00,WeatherDisplay:10.37,2013-12-19 18:32:00,
2013-12-19 12:37:00,16.1,11.3,30.16,NE,46,12.0,12.0,81,0.00,CLR,,0.00,WeatherDisplay:10.37,2013-12-19 18:37:00,
2013-12-19 12:42:00,16.1,11.3,30.16,NE,48,12.0,12.0,81,0.00,CLR,,0.00,WeatherDisplay:10.37,2013-12-19 18:42:00,
2013-12-19 12:47:00,16.2,11.4,30.16,NNE,19,12.7,12.7,81,0.00,CLR,,0.00,WeatherDisplay:10.37,2013-12-19 18:47:00,
2013-12-19 12:52:00,16.2,11.4,30.15,NE,38,11.5,11.5,81,0.00,CLR,,0.00,WeatherDisplay:10.37,2013-12-19 18:52:00,
2013-12-19 12:57:00,16.2,11.4,30.15,NE,54,12.7,12.7,81,0.00,CLR,,0.00,WeatherDisplay:10.37,2013-12-19 18:57:00,
2013-12-19 13:02:00,16.2,11.1,30.15,NE,40,11.5,11.5,80,0.00,CLR,,0.00,WeatherDisplay:10.37,2013-12-19 19:02:00,
2013-12-19 13:07:00,16.1,11.0,30.16,NNE,21,13.8,13.8,80,0.00,CLR,,0.00,WeatherDisplay:10.37,2013-12-19 19:07:00,
2013-12-19 13:12:00,16.1,11.0,30.16,NE,34,14.0,14.0,80,0.00,CLR,,0.00,WeatherDisplay:10.37,2013-12-19 19:12:00,
2013-12-19 13:17:00,16.1,11.0,30.16,NNE,32,11.0,11.0,80,0.00,CLR,,0.00,WeatherDisplay:10.37,2013-12-19 19:17:00,
2013-12-19 13:22:00,15.9,10.8,30.15,NE,40,15.0,15.0,80,0.00,CLR,,0.00,WeatherDisplay:10.37,2013-12-19 19:22:00,
2013-12-19 13:27:00,15.7,10.6,30.15,ENE,59,10.0,10.0,80,0.00,CLR,,0.00,WeatherDisplay:10.37,2013-12-19 19:27:00,
2013-12-19 13:32:00,15.7,10.6,30.14,NNE,15,10.4,10.4,80,0.00,CLR,,0.00,WeatherDisplay:10.37,2013-12-19 19:32:00,
2013-12-19 13:37:00,15.7,10.9,30.14,NE,48,6.0,6.0,81,0.00,CLR,,0.00,WeatherDisplay:10.37,2013-12-19 19:37:00,
2013-12-19 13:42:00,15.7,10.9,30.14,NE,44,10.4,10.4,81,0.00,CLR,,0.00,WeatherDisplay:10.37,2013-12-19 19:42:00,
2013-12-19 13:47:00,15.7,11.2,30.14,NE,37,4.0,4.0,82,0.00,CLR,,0.00,WeatherDisplay:10.37,2013-12-19 19:47:00,
2013-12-19 13:52:00,15.7,11.2,30.14,NE,38,9.2,9.2,82,0.00,CLR,,0.00,WeatherDisplay:10.37,2013-12-19 19:52:00,
2013-12-19 13:57:00,15.9,11.4,30.14,ENE,64,10.4,10.4,82,0.00,CLR,,0.00,WeatherDisplay:10.37,2013-12-19 19:57:00,
2013-12-19 14:02:00,15.9,11.4,30.14,NE,54,8.1,8.1,82,0.00,CLR,,0.00,WeatherDisplay:10.37,2013-12-19 20:02:00,
2013-12-19 14:07:00,15.9,11.4,30.14,ENE,67,10.4,10.4,82,0.00,CLR,,0.00,WeatherDisplay:10.37,2013-12-19 20:07:00,
2013-12-19 14:12:00,16.1,11.6,30.14,NNE,16,14.0,14.0,82,0.00,CLR,,0.00,WeatherDisplay:10.37,2013-12-19 20:12:00,
2013-12-19 14:17:00,16.1,11.6,30.14,NE,51,10.4,10.4,82,0.00,CLR,,0.00,WeatherDisplay:10.37,2013-12-19 20:17:00,
2013-12-19 14:22:00,16.1,11.6,30.14,NE,48,15.0,15.0,82,0.00,CLR,,0.00,WeatherDisplay:10.37,2013-12-19 20:22:00,
2013-12-19 14:27:00,15.9,11.4,30.13,NE,55,7.0,7.0,82,0.00,CLR,,0.00,WeatherDisplay:10.37,2013-12-19 20:27:00,
2013-12-19 14:32:00,15.9,11.4,30.13,NE,35,12.7,12.7,82,0.00,CLR,,0.00,WeatherDisplay:10.37,2013-12-19 20:32:00,
2013-12-19 14:37:00,15.7,11.2,30.13,NNE,28,10.4,10.4,82,0.00,CLR,,0.00,WeatherDisplay:10.37,2013-12-19 20:37:00,
2013-12-19 14:42:00,15.7,11.2,30.13,NE,37,16.1,16.1,82,0.00,CLR,,0.00,WeatherDisplay:10.37,2013-12-19 20:42:00,
2013-12-19 14:49:00,15.7,11.5,30.13,NNE,32,11.5,11.5,83,0.00,CLR,,0.00,WeatherDisplay:10.37,2013-12-19 20:49:00,
2013-12-19 14:54:00,15.6,11.4,30.13,NNE,21,10.4,10.4,83,0.00,CLR,,0.00,WeatherDisplay:10.37,2013-12-19 20:54:00,
2013-12-19 14:59:00,15.6,11.4,30.14,NE,40,6.0,12.0,83,0.00,CLR,CLR,0.00,WeatherDisplay:10.37,2013-12-19 20:59:00,
2013-12-19 15:06:00,15.6,11.4,30.13,NE,52,14.0,14.0,83,0.00,CLR,,0.00,WeatherDisplay:10.37,2013-12-19 21:06:00,
2013-12-19 15:11:00,15.6,11.6,30.13,ENE,66,15.0,15.0,84,0.00,CLR,,0.00,WeatherDisplay:10.37,2013-12-19 21:11:00,
2013-12-19 15:16:00,15.6,11.6,30.14,NE,49,11.5,11.5,84,0.00,CLR,,0.00,WeatherDisplay:10.37,2013-12-19 21:16:00,
2013-12-19 15:21:00,15.4,11.4,30.14,NNE,16,8.1,8.1,84,0.00,CLR,,0.00,WeatherDisplay:10.37,2013-12-19 21:21:00,
2013-12-19 15:26:00,15.4,11.4,30.15,NE,34,9.2,9.2,84,0.00,CLR,,0.00,WeatherDisplay:10.37,2013-12-19 21:26:00,
2013-12-19 15:31:00,15.4,11.4,30.15,NE,42,12.0,12.0,84,0.00,CLR,,0.00,WeatherDisplay:10.37,2013-12-19 21:31:00,
2013-12-19 15:36:00,15.4,11.4,30.16,NE,54,13.0,13.0,84,0.00,CLR,,0.00,WeatherDisplay:10.37,2013-12-19 21:36:00,
2013-12-19 15:41:00,15.2,11.2,30.16,NE,50,9.2,9.2,84,0.00,CLR,,0.00,WeatherDisplay:10.37,2013-12-19 21:41:00,
2013-12-19 15:46:00,15.2,11.2,30.17,ENE,57,11.5,11.5,84,0.00,CLR,,0.00,WeatherDisplay:10.37,2013-12-19 21:46:00,
2013-12-19 15:51:00,15.2,11.2,30.17,NE,46,10.4,10.4,84,0.00,CLR,,0.00,WeatherDisplay:10.37,2013-12-19 21:51:00,
2013-12-19 15:56:00,15.2,11.2,30.17,NE,48,11.5,11.5,84,0.00,CLR,,0.00,WeatherDisplay:10.37,2013-12-19 21:56:00,
2013-12-19 16:01:00,15.1,11.1,30.17,NE,44,6.9,6.9,84,0.00,CLR,,0.00,WeatherDisplay:10.37,2013-12-19 22:01:00,
2013-12-19 16:06:00,15.1,11.1,30.17,NNE,23,11.5,11.5,84,0.00,CLR,,0.00,WeatherDisplay:10.37,2013-12-19 22:06:00,
2013-12-19 16:11:00,15.1,11.1,30.17,ENE,63,10.4,10.4,84,0.00,CLR,,0.00,WeatherDisplay:10.37,2013-12-19 22:11:00,
2013-12-19 16:16:00,14.9,10.9,30.16,NE,46,10.4,10.4,84,0.00,CLR,,0.00,WeatherDisplay:10.37,2013-12-19 22:16:00,
2013-12-19 16:21:00,14.9,10.9,30.16,NE,41,11.5,11.5,84,0.00,CLR,,0.00,WeatherDisplay:10.37,2013-12-19 22:21:00,
2013-12-19 16:26:00,14.9,10.9,30.16,ENE,57,10.0,10.0,84,0.00,CLR,,0.00,WeatherDisplay:10.37,2013-12-19 22:26:00,
2013-12-19 16:31:00,14.8,10.8,30.16,NNE,29,11.0,11.0,84,0.00,CLR,,0.00,WeatherDisplay:10.37,2013-12-19 22:31:00,
2013-12-19 16:36:00,14.8,10.8,30.16,NE,34,6.9,6.9,84,0.00,CLR,,0.00,WeatherDisplay:10.37,2013-12-19 22:36:00,
2013-12-19 16:41:00,14.8,10.8,30.16,NNE,23,11.5,11.5,84,0.00,CLR,,0.00,WeatherDisplay:10.37,2013-12-19 22:41:00,
2013-12-19 16:46:00,14.6,10.6,30.16,NE,35,8.1,8.1,84,0.00,CLR,,0.00,WeatherDisplay:10.37,2013-12-19 22:46:00,
2013-12-19 16:51:00,14.6,10.6,30.16,NE,52,10.4,10.4,84,0.00,CLR,,0.00,WeatherDisplay:10.37,2013-12-19 22:51:00,
2013-12-19 16:56:00,14.6,10.6,30.16,NNE,28,9.0,9.0,84,0.00,CLR,,0.00,WeatherDisplay:10.37,2013-12-19 22:56:00,
2013-12-19 17:01:00,14.6,10.6,30.17,NNE,30,9.2,9.2,84,0.00,CLR,,0.00,WeatherDisplay:10.37,2013-12-19 23:01:00,
2013-12-19 17:06:00,14.6,10.6,30.17,NE,48,10.4,10.4,84,0.00,CLR,,0.00,WeatherDisplay:10.37,2013-12-19 23:06:00,
2013-12-19 17:11:00,14.6,10.9,30.17,NNE,31,13.8,13.8,85,0.00,CLR,,0.00,WeatherDisplay:10.37,2013-12-19 23:11:00,
2013-12-19 17:16:00,14.4,10.7,30.17,NE,41,8.1,8.1,85,0.00,CLR,,0.00,WeatherDisplay:10.37,2013-12-19 23:16:00,
2013-12-19 17:21:00,14.4,10.7,30.17,NNE,21,8.1,8.1,85,0.00,CLR,,0.00,WeatherDisplay:10.37,2013-12-19 23:21:00,
2013-12-19 17:26:00,14.4,10.7,30.17,NE,40,10.0,10.0,85,0.00,CLR,,0.00,WeatherDisplay:10.37,2013-12-19 23:26:00,
2013-12-19 17:31:00,14.4,10.7,30.17,NNE,27,8.1,8.1,85,0.00,CLR,,0.00,WeatherDisplay:10.37,2013-12-19 23:31:00,
2013-12-19 17:36:00,14.4,10.7,30.17,NE,43,10.4,10.4,85,0.00,CLR,,0.00,WeatherDisplay:10.37,2013-12-19 23:36:00,
2013-12-19 17:41:00,14.4,10.7,30.18,East,92,11.5,11.5,85,0.00,CLR,,0.00,WeatherDisplay:10.37,2013-12-19 23:41:00,
2013-12-19 17:46:00,14.4,11.0,30.18,NE,44,6.0,6.0,86,0.00,CLR,,0.00,WeatherDisplay:10.37,2013-12-19 23:46:00,
2013-12-19 17:51:00,14.4,11.0,30.18,NE,42,11.5,11.5,86,0.00,CLR,,0.00,WeatherDisplay:10.37,2013-12-19 23:51:00,
2013-12-19 17:56:00,14.4,11.0,30.18,NE,54,8.1,8.1,86,0.00,CLR,,0.00,WeatherDisplay:10.37,2013-12-19 23:56:00,
2013-12-19 18:01:00,14.4,11.0,30.18,NE,38,11.5,11.5,86,0.00,CLR,,0.00,WeatherDisplay:10.37,2013-12-20 00:01:00,
2013-12-19 18:06:00,14.4,11.0,30.18,NE,46,15.0,15.0,86,0.00,CLR,,0.00,WeatherDisplay:10.37,2013-12-20 00:06:00,
2013-12-19 18:11:00,14.4,11.0,30.18,ENE,65,9.2,9.2,86,0.00,CLR,,0.00,WeatherDisplay:10.37,2013-12-20 00:11:00,
2013-12-19 18:16:00,14.4,11.0,30.18,NE,52,12.0,12.0,86,0.00,CLR,,0.00,WeatherDisplay:10.37,2013-12-20 00:16:00,
2013-12-19 18:21:00,14.4,11.0,30.18,NE,47,10.4,10.4,86,0.00,CLR,,0.00,WeatherDisplay:10.37,2013-12-20 00:21:00,
2013-12-19 18:26:00,14.4,11.0,30.18,NE,46,8.1,8.1,86,0.00,CLR,,0.00,WeatherDisplay:10.37,2013-12-20 00:26:00,
2013-12-19 18:31:00,14.4,11.0,30.18,ENE,73,10.4,10.4,86,0.00,CLR,,0.00,WeatherDisplay:10.37,2013-12-20 00:31:00,
2013-12-19 18:36:00,14.4,11.0,30.18,NE,44,8.1,8.1,86,0.00,CLR,,0.00,WeatherDisplay:10.37,2013-12-20 00:36:00,
2013-12-19 18:41:00,14.4,11.0,30.18,NE,42,8.1,8.1,86,0.00,CLR,,0.00,WeatherDisplay:10.37,2013-12-20 00:41:00,
2013-12-19 18:46:00,14.4,11.0,30.18,NE,34,4.0,4.0,86,0.00,CLR,,0.00,WeatherDisplay:10.37,2013-12-20 00:46:00,
2013-12-19 18:51:00,14.4,11.0,30.18,NE,48,10.4,10.4,86,0.00,CLR,,0.00,WeatherDisplay:10.37,2013-12-20 00:51:00,
2013-12-19 18:56:00,14.3,10.9,30.18,ENE,62,11.5,11.5,86,0.00,CLR,,0.00,WeatherDisplay:10.37,2013-12-20 00:56:00,
2013-12-19 19:01:00,14.3,10.9,30.18,NE,34,11.5,11.5,86,0.00,CLR,,0.00,WeatherDisplay:10.37,2013-12-20 01:01:00,
2013-12-19 19:06:00,14.3,10.9,30.18,NE,48,12.0,12.0,86,0.00,CLR,,0.00,WeatherDisplay:10.37,2013-12-20 01:06:00,
2013-12-19 19:11:00,14.3,10.9,30.18,NE,44,10.4,10.4,86,0.00,CLR,,0.00,WeatherDisplay:10.37,2013-12-20 01:11:00,
2013-12-19 19:16:00,14.3,10.9,30.18,NE,42,10.4,10.4,86,0.00,CLR,,0.00,WeatherDisplay:10.37,2013-12-20 01:16:00,
2013-12-19 19:21:00,14.3,10.9,30.18,NE,52,10.4,10.4,86,0.00,CLR,,0.00,WeatherDisplay:10.37,2013-12-20 01:21:00,
2013-12-19 19:26:00,14.3,10.9,30.18,East,84,9.2,9.2,86,0.00,CLR,,0.00,WeatherDisplay:10.37,2013-12-20 01:26:00,
2013-12-19 19:31:00,14.3,10.9,30.18,ENE,65,9.2,9.2,86,0.00,CLR,,0.00,WeatherDisplay:10.37,2013-12-20 01:31:00,
2013-12-19 19:36:00,14.3,10.9,30.18,ENE,63,9.2,9.2,86,0.00,CLR,,0.00,WeatherDisplay:10.37,2013-12-20 01:36:00,
2013-12-19 19:41:00,14.1,10.7,30.17,NE,49,9.2,9.2,86,0.00,CLR,,0.00,WeatherDisplay:10.37,2013-12-20 01:41:00,
2013-12-19 19:46:00,14.1,10.7,30.17,NE,35,7.0,7.0,86,0.00,CLR,,0.00,WeatherDisplay:10.37,2013-12-20 01:46:00,
2013-12-19 19:51:00,14.1,10.7,30.17,East,80,8.1,8.1,86,0.00,CLR,,0.00,WeatherDisplay:10.37,2013-12-20 01:51:00,
2013-12-19 19:56:00,14.1,10.7,30.17,NNE,26,9.2,9.2,86,0.00,CLR,,0.00,WeatherDisplay:10.37,2013-12-20 01:56:00,
2013-12-19 20:01:00,14.1,10.7,30.17,East,79,8.1,8.1,86,0.00,CLR,,0.00,WeatherDisplay:10.37,2013-12-20 02:01:00,
2013-12-19 20:06:00,14.1,10.7,30.17,ENE,61,8.1,8.1,86,0.00,CLR,,0.00,WeatherDisplay:10.37,2013-12-20 02:06:00,
2013-12-19 20:11:00,14.1,10.7,30.17,ENE,77,10.4,10.4,86,0.00,CLR,,0.00,WeatherDisplay:10.37,2013-12-20 02:11:00,
2013-12-19 20:16:00,14.1,10.7,30.18,NE,42,6.9,6.9,86,0.00,CLR,,0.00,WeatherDisplay:10.37,2013-12-20 02:16:00,
2013-12-19 20:21:00,14.1,10.7,30.18,ENE,61,8.0,8.0,86,0.00,CLR,,0.00,WeatherDisplay:10.37,2013-12-20 02:21:00,
2013-12-19 20:26:00,14.1,10.7,30.18,ENE,71,8.1,8.1,86,0.00,CLR,,0.00,WeatherDisplay:10.37,2013-12-20 02:26:00,
2013-12-19 20:31:00,14.1,10.7,30.18,ENE,69,5.0,5.0,86,0.00,CLR,,0.00,WeatherDisplay:10.37,2013-12-20 02:31:00,
2013-12-19 20:36:00,14.1,10.7,30.18,ENE,70,9.2,9.2,86,0.00,CLR,,0.00,WeatherDisplay:10.37,2013-12-20 02:36:00,
2013-12-19 20:41:00,14.0,10.6,30.18,East,81,8.1,8.1,86,0.00,CLR,,0.00,WeatherDisplay:10.37,2013-12-20 02:41:00,
2013-12-19 20:46:00,14.0,10.6,30.18,East,88,6.9,6.9,86,0.00,CLR,,0.00,WeatherDisplay:10.37,2013-12-20 02:46:00,
2013-12-19 20:51:00,14.0,10.6,30.19,ENE,77,9.2,9.2,86,0.00,CLR,,0.00,WeatherDisplay:10.37,2013-12-20 02:51:00,
2013-12-19 20:56:00,14.0,10.6,30.18,ENE,74,9.2,9.2,86,0.00,CLR,,0.00,WeatherDisplay:10.37,2013-12-20 02:56:00,
2013-12-19 21:01:00,14.0,10.6,30.18,ENE,75,8.1,8.1,86,0.00,CLR,,0.00,WeatherDisplay:10.37,2013-12-20 03:01:00,
2013-12-19 21:06:00,14.0,10.6,30.17,East,82,8.1,8.1,86,0.00,CLR,,0.00,WeatherDisplay:10.37,2013-12-20 03:06:00,
2013-12-19 21:11:00,14.0,10.6,30.17,ENE,63,8.1,8.1,86,0.00,CLR,,0.00,WeatherDisplay:10.37,2013-12-20 03:11:00,
2013-12-19 21:16:00,14.0,10.6,30.17,ENE,72,10.4,10.4,86,0.00,CLR,,0.00,WeatherDisplay:10.37,2013-12-20 03:16:00,
2013-12-19 21:21:00,14.0,10.6,30.17,ENE,76,6.9,6.9,86,0.00,CLR,,0.00,WeatherDisplay:10.37,2013-12-20 03:21:00,
2013-12-19 21:26:00,14.0,10.6,30.17,ENE,65,9.2,9.2,86,0.00,CLR,,0.00,WeatherDisplay:10.37,2013-12-20 03:26:00,
2013-12-19 21:31:00,14.0,10.6,30.17,East,89,9.2,9.2,86,0.00,CLR,,0.00,WeatherDisplay:10.37,2013-12-20 03:31:00,
2013-12-19 21:36:00,14.0,10.6,30.17,ENE,63,5.8,5.8,86,0.00,CLR,,0.00,WeatherDisplay:10.37,2013-12-20 03:36:00,
2013-12-19 21:41:00,14.0,10.6,30.17,ENE,61,8.0,8.0,86,0.00,CLR,,0.00,WeatherDisplay:10.37,2013-12-20 03:41:00,
2013-12-19 21:46:00,13.8,10.4,30.17,East,84,9.2,9.2,86,0.00,CLR,,0.00,WeatherDisplay:10.37,2013-12-20 03:46:00,
2013-12-19 21:51:00,13.8,10.4,30.17,ENE,77,10.4,10.4,86,0.00,CLR,,0.00,WeatherDisplay:10.37,2013-12-20 03:51:00,
2013-12-19 21:56:00,13.8,10.4,30.18,East,79,6.9,6.9,86,0.00,CLR,,0.00,WeatherDisplay:10.37,2013-12-20 03:56:00,
2013-12-19 22:01:00,13.8,10.4,30.17,East,87,12.0,12.0,86,0.00,CLR,,0.00,WeatherDisplay:10.37,2013-12-20 04:01:00,
2013-12-19 22:06:00,13.8,10.4,30.17,East,84,11.5,11.5,86,0.00,CLR,,0.00,WeatherDisplay:10.37,2013-12-20 04:06:00,
2013-12-19 22:11:00,13.6,9.9,30.18,ENE,69,7.0,7.0,85,0.00,CLR,,0.00,WeatherDisplay:10.37,2013-12-20 04:11:00,
2013-12-19 22:16:00,13.6,9.9,30.18,ENE,65,8.1,8.1,85,0.00,CLR,,0.00,WeatherDisplay:10.37,2013-12-20 04:16:00,
2013-12-19 22:21:00,13.6,9.9,30.18,ENE,65,6.9,6.9,85,0.00,CLR,,0.00,WeatherDisplay:10.37,2013-12-20 04:21:00,
2013-12-19 22:26:00,13.6,9.9,30.18,East,84,9.2,9.2,85,0.00,CLR,,0.00,WeatherDisplay:10.37,2013-12-20 04:26:00,
2013-12-19 22:31:00,13.5,9.8,30.17,ENE,75,8.1,8.1,85,0.00,CLR,,0.00,WeatherDisplay:10.37,2013-12-20 04:31:00,
2013-12-19 22:36:00,13.5,9.8,30.18,East,80,5.8,5.8,85,0.00,CLR,,0.00,WeatherDisplay:10.37,2013-12-20 04:36:00,
2013-12-19 22:41:00,13.5,9.8,30.17,ENE,74,9.2,9.2,85,0.00,CLR,,0.00,WeatherDisplay:10.37,2013-12-20 04:41:00,
2013-12-19 22:46:00,13.5,9.8,30.17,ENE,76,6.9,6.9,85,0.00,CLR,,0.00,WeatherDisplay:10.37,2013-12-20 04:46:00,
2013-12-19 22:51:00,13.5,9.8,30.18,East,87,12.0,12.0,85,0.00,CLR,,0.00,WeatherDisplay:10.37,2013-12-20 04:51:00,
2013-12-19 22:56:00,13.3,9.6,30.17,ENE,72,7.0,7.0,85,0.00,CLR,,0.00,WeatherDisplay:10.37,2013-12-20 04:56:00,
2013-12-19 23:01:00,13.3,9.6,30.17,East,88,10.4,10.4,85,0.00,CLR,,0.00,WeatherDisplay:10.37,2013-12-20 05:01:00,
2013-12-19 23:02:00,13.3,9.6,30.17,ENE,75,11.5,11.5,85,0.00,CLR,,0.00,WeatherDisplay:10.37,2013-12-20 05:02:00,
2013-12-19 23:03:00,13.3,9.6,30.17,ENE,74,11.5,11.5,85,0.00,CLR,,0.00,WeatherDisplay:10.37,2013-12-20 05:03:00,
2013-12-19 23:04:00,13.3,9.6,30.17,ENE,74,11.5,11.5,85,0.00,CLR,,0.00,WeatherDisplay:10.37,2013-12-20 05:04:00,
2013-12-19 23:09:00,13.3,9.6,30.17,ENE,78,6.0,12.0,85,0.00,CLR,CLR,0.00,WeatherDisplay:10.37,2013-12-20 05:09:00,
2013-12-19 23:12:00,13.3,9.6,30.17,East,96,15.0,15.0,85,0.00,CLR,,0.00,WeatherDisplay:10.37,2013-12-20 05:12:00,
2013-12-19 23:18:00,13.3,9.6,30.17,East,86,8.1,8.1,85,0.00,CLR,,0.00,WeatherDisplay:10.37,2013-12-20 05:18:00,
2013-12-19 23:23:00,13.3,9.6,30.17,ENE,67,4.6,4.6,85,0.00,CLR,,0.00,WeatherDisplay:10.37,2013-12-20 05:23:00,
2013-12-19 23:28:00,13.1,9.4,30.17,East,90,9.2,9.2,85,0.00,CLR,,0.00,WeatherDisplay:10.37,2013-12-20 05:28:00,
2013-12-19 23:33:00,13.1,9.4,30.17,East,80,10.4,10.4,85,0.00,CLR,,0.00,WeatherDisplay:10.37,2013-12-20 05:33:00,
2013-12-19 23:38:00,13.1,9.4,30.17,ENE,62,10.4,10.4,85,0.00,CLR,,0.00,WeatherDisplay:10.37,2013-12-20 05:38:00,
2013-12-19 23:43:00,13.1,9.4,30.16,East,80,6.9,6.9,85,0.00,CLR,,0.00,WeatherDisplay:10.37,2013-12-20 05:43:00,
2013-12-19 23:47:00,13.1,9.4,30.16,East,81,8.1,8.1,85,0.00,CLR,,0.00,WeatherDisplay:10.37,2013-12-20 05:47:00,
2013-12-19 23:52:00,13.1,9.4,30.16,East,79,9.2,9.2,85,0.00,CLR,,0.00,WeatherDisplay:10.37,2013-12-20 05:52:00,
2013-12-19 23:57:00,13.1,9.4,30.15,ENE,77,9.2,9.2,85,0.00,CLR,,0.00,WeatherDisplay:10.37,2013-12-20 05:57:00,